Simultaneous Nadir Overpasses (SNOs) Predictions

Prediction of SNOs between GOES-14 and NPP Satellite Orbit:

Table of predicted SNOs for the next 14.0 days since TLE Epoch: 7/29/2023
Index Date Time (GOES-14) GOES-14 Lat,Lon NPP Lat,Lon Distance(km) Time Diff (sec)
1 07/29/2023 20:53:57 0.36,-108.54 -0.42,-112.14 409.74 80
2 07/30/2023 20:37:51 0.34,-108.54 0.55,-107.60 106.53 80
3 08/01/2023 08:57:00 -0.38,-108.64 0.58,-112.89 484.02 80
4 08/02/2023 08:40:55 -0.36,-108.64 -0.45,-108.36 32.06 80
5 08/04/2023 20:41:26 0.38,-108.52 0.23,-109.13 69.68 80
6 08/05/2023 20:25:21 0.36,-108.52 1.26,-104.61 446.96 80
7 08/07/2023 08:44:30 -0.39,-108.63 -0.14,-109.89 142.70 80
8 08/08/2023 08:28:24 -0.38,-108.63 -1.11,-105.35 373.56 80
9 08/09/2023 20:47:41 0.41,-108.51 -0.07,-110.66 244.90 80
10 08/10/2023 20:31:35 0.41,-108.51 0.91,-106.12 271.44 80
